Wind_Speed
17 16 17 16 16 15 15 15 15 15 16 16 16 17 17 17 17 18 18 18 19 19 19 19 20 20 21 21 22 22 22 23 23 23 23 24 24 24
18 18 18 18 18 18 17 18 18 18 19 19 19 19 20 20 21 21 22 22 22 23 23 23 23 24 24 25 25 25 26 26 26 26 27 27 27 27
20 20 21 20 20 20 20 20 20 20 20 21 21 22 23 23 24 24 25 25 25 26 26 27 27 27 27 28 28 29 29 29 29 29 29 30 30 30
22 22 22 22 22 22 22 22 22 22 22 22 23 24 25 26 27 28 28 28 29 29 30 30 31 31 32 32 31 31 32 32 32 32 32 32 33 33
23 23 24 24 24 23 23 24 25 25 25 25 26 26 26 27 28 29 30 31 32 33 33 33 33 34 34 34 34 35 35 35 36 36 36 36 36 37
24 24 24 24 25 25 26 26 26 27 27 28 28 29 29 30 31 32 33 34 34 35 35 35 36 36 37 37 38 38 38 38 39 39 39 40 40 40
25 25 24 25 26 27 27 27 29 30 31 31 31 32 32 33 34 35 35 36 37 38 38 39 39 40 40 41 41 41 42 42 42 42 42 42 43 42
26 26 25 26 27 27 28 29 30 31 32 33 33 34 35 36 37 37 38 39 39 40 42 41 43 43 43 44 44 44 45 45 45 45 45 45 45 45
26 26 27 28 29 29 30 31 32 33 34 35 35 35 36 38 39 39 40 40 40 41 43 42 43 44 45 46 47 47 48 49 49 49 49 49 49 49
27 28 29 29 30 31 33 33 34 35 36 36 37 38 39 41 42 42 42 43 43 44 45 45 45 46 47 48 50 50 51 52 52 52 52 52 52 52
28 29 31 32 33 33 34 35 36 37 38 39 40 41 42 44 44 45 45 46 45 46 47 48 48 49 50 50 51 52 53 53 53 53 53 54 54 54
30 31 33 34 35 35 36 37 38 39 40 41 42 43 44 44 46 47 47 48 49 49 49 51 52 52 52 51 52 53 53 53 53 54 54 55 55 55
32 34 35 37 36 37 38 39 40 40 42 43 44 45 46 46 47 48 49 50 51 52 52 53 53 53 54 52 51 52 53 53 53 54 55 55 56 56
34 35 36 37 38 39 40 40 41 42 43 44 45 46 47 48 49 51 52 53 53 54 54 54 54 54 54 53 52 53 54 54 54 53 54 54 54 55
33 35 37 39 40 40 41 42 43 44 45 46 47 47 49 50 51 52 53 54 54 54 54 54 55 55 55 54 53 53 54 54 54 53 52 53 52 53
35 37 39 40 41 42 44 45 46 47 47 48 48 49 50 51 51 52 53 53 53 53 54 54 54 54 54 53 53 52 53 53 52 52 52 52 51 51
36 38 40 41 42 44 46 47 47 48 49 49 49 49 50 51 51 51 51 52 52 51 52 52 52 52 52 52 51 51 51 51 50 50 50 49 49 49
38 40 42 44 44 45 46 47 47 48 49 49 49 50 50 50 51 51 51 51 50 50 50 50 50 50 50 50 50 50 49 48 47 46 46 45 44 44
38 39 40 41 43 44 45 45 46 47 47 48 48 48 49 49 49 50 50 50 50 49 49 49 49 48 48 47 47 48 47 46 44 43 42 41 40 40
39 40 41 41 41 41 42 43 44 45 46 46 46 47 47 47 47 47 47 46 45 45 45 44 44 43 44 43 42 41 41 40 39 39 38 38 37 37
40 40 40 41 40 40 41 41 42 42 42 42 42 42 42 42 42 41 41 40 40 40 40 40 40 39 39 38 37 36 35 35 35 35 35 34 34 33
40 40 40 40 40 40 40 40 40 39 39 39 39 39 38 38 37 37 37 37 37 36 36 36 36 35 34 33 33 32 31 31 32 32 32 31 30 29
39 39 38 38 38 38 38 38 38 38 37 37 37 36 36 34 34 33 33 33 33 32 32 32 31 30 30 31 30 29 29 29 29 29 29 29 27 26
Wind_Direction
242 245 248 250 252 253 254 256 256 257 259 261 260 259 261 264 267 269 271 272 274 275 276 276 277 278 279 279 281 281 281 280 280 279 278 277 277 278
246 247 250 253 256 259 259 259 260 261 262 263 264 263 263 265 269 271 272 273 274 275 276 277 277 277 278 279 280 280 280 279 278 277 277 276 276 275
249 250 250 253 257 260 261 261 262 264 266 266 268 268 267 267 269 271 273 274 275 276 276 277 278 278 279 280 280 280 279 280 279 278 276 275 275 275
250 252 252 253 257 260 262 264 265 266 267 269 270 271 270 270 271 272 273 275 276 277 277 279 278 279 279 280 281 280 279 278 278 277 276 275 274 273
252 255 256 255 258 262 265 267 268 269 270 271 272 273 273 273 274 274 274 275 275 275 276 277 278 279 279 279 280 280 278 277 277 277 277 276 275 272
254 257 256 257 260 264 267 268 270 271 272 273 274 275 275 274 275 276 275 276 277 278 277 277 278 278 278 278 278 278 278 277 277 277 277 277 275 273
255 255 257 259 262 265 267 269 271 273 274 275 276 276 277 277 278 278 278 278 278 278 278 277 278 278 277 277 277 278 277 277 277 277 277 276 275 273
256 256 257 259 262 266 268 271 273 275 276 277 277 277 277 278 278 279 279 279 278 277 277 278 278 278 278 278 278 278 277 276 276 275 275 274 273 272
258 259 261 263 265 268 270 273 274 276 277 278 278 278 279 279 280 281 282 281 279 278 278 278 278 278 278 278 278 278 277 276 274 274 273 273 272 272
260 262 264 266 269 271 273 274 276 278 278 279 279 278 279 280 281 282 282 282 281 280 280 279 278 278 279 279 279 278 278 276 275 274 273 273 272 272
264 265 267 269 272 272 273 274 276 277 278 279 280 279 279 280 281 282 283 282 282 281 281 281 280 279 279 280 279 278 278 276 275 274 273 273 272 272
269 270 272 272 273 274 275 276 277 278 278 279 279 280 280 280 280 281 282 283 282 282 281 280 280 280 280 280 279 278 277 277 276 275 274 273 272 272
274 274 276 274 273 275 277 278 278 278 279 280 280 281 281 281 281 282 283 283 282 282 282 281 281 280 280 280 279 278 277 276 276 276 275 274 273 272
276 277 278 275 275 276 278 279 279 280 281 281 281 281 281 281 282 283 284 283 283 282 282 281 281 280 280 279 278 278 277 277 277 277 276 275 274 273
280 279 279 279 279 279 280 280 281 281 281 281 281 282 283 283 284 284 284 284 283 283 282 281 281 281 280 280 280 279 278 278 277 277 277 277 276 275
284 284 284 282 281 281 281 281 281 282 282 281 282 283 283 284 285 285 284 284 283 282 282 282 282 282 281 282 282 281 281 280 278 278 277 277 276 275
286 286 286 285 284 284 283 282 282 282 282 282 283 284 285 286 286 285 284 284 283 283 283 284 284 284 283 283 282 282 282 281 281 279 278 277 275 273
289 289 288 286 286 286 286 285 285 285 284 284 285 285 285 285 285 285 284 284 284 284 284 284 283 283 283 283 283 283 283 283 283 282 280 278 276 275
293 293 292 291 290 289 288 287 287 287 286 286 287 287 287 287 287 287 286 286 286 285 285 285 284 283 284 284 283 283 284 283 283 282 281 280 278 276
295 295 295 294 293 292 291 291 290 289 288 288 288 288 289 289 288 287 287 287 287 287 287 287 287 286 285 286 285 285 284 284 283 281 280 280 279 278
298 298 297 296 295 295 295 295 294 293 292 291 291 291 291 292 291 291 291 291 291 290 288 287 288 288 288 288 286 285 284 285 284 283 281 280 279 278
300 299 298 298 297 296 296 296 296 295 294 294 294 294 295 295 295 295 294 293 293 292 291 291 290 289 289 288 287 285 284 284 285 285 284 283 281 278
300 300 299 299 298 298 298 298 297 297 296 295 295 294 295 296 297 298 297 296 295 294 294 294 293 291 289 289 288 287 288 286 285 285 286 286 283 281
Height
5872 5873 5873 5874 5874 5874 5874 5875 5876 5875 5875 5875 5875 5874 5874 5873 5873 5872 5871 5870 5870 5869 5868 5867 5866 5865 5864 5863 5861 5860 5859 5858 5856 5855 5854 5853 5851 5850
5868 5868 5869 5869 5870 5870 5870 5870 5871 5871 5870 5870 5870 5869 5869 5868 5868 5867 5866 5865 5864 5863 5862 5861 5859 5858 5857 5856 5855 5853 5852 5851 5849 5848 5847 5846 5844 5843
5863 5863 5864 5864 5865 5865 5865 5865 5865 5865 5865 5864 5864 5863 5863 5862 5861 5861 5860 5859 5858 5856 5855 5854 5852 5851 5850 5848 5847 5846 5844 5843 5841 5840 5839 5837 5836 5835
5858 5858 5859 5859 5859 5859 5859 5859 5859 5859 5859 5858 5857 5857 5856 5855 5854 5853 5853 5852 5850 5849 5847 5846 5844 5843 5841 5840 5838 5837 5835 5834 5832 5831 5830 5828 5827 5826
5852 5853 5853 5853 5853 5853 5853 5853 5853 5852 5852 5851 5850 5849 5848 5847 5847 5845 5844 5843 5842 5840 5838 5837 5835 5833 5832 5830 5828 5827 5825 5824 5822 5821 5820 5818 5817 5816
5846 5846 5847 5847 5847 5847 5846 5846 5846 5845 5845 5844 5843 5841 5840 5839 5838 5836 5835 5833 5832 5830 5829 5827 5825 5823 5822 5820 5818 5816 5814 5813 5811 5810 5808 5807 5806 5804
5840 5840 5840 5840 5840 5840 5839 5839 5838 5838 5837 5836 5835 5833 5832 5830 5828 5827 5825 5823 5822 5820 5818 5816 5814 5813 5811 5809 5807 5805 5803 5801 5799 5797 5796 5794 5793 5792
5833 5833 5833 5833 5833 5832 5832 5831 5830 5829 5828 5827 5826 5824 5822 5820 5818 5816 5814 5813 5811 5809 5806 5805 5802 5800 5798 5796 5794 5792 5790 5788 5786 5785 5783 5781 5780 5778
5826 5826 5826 5826 5825 5824 5824 5823 5822 5820 5819 5817 5816 5814 5812 5809 5807 5805 5803 5801 5799 5796 5794 5792 5790 5787 5785 5783 5780 5778 5776 5774 5772 5770 5768 5767 5765 5764
5819 5819 5818 5818 5817 5816 5815 5814 5812 5811 5809 5807 5805 5803 5800 5798 5795 5793 5791 5789 5787 5784 5781 5779 5777 5775 5772 5769 5766 5764 5761 5759 5756 5754 5752 5751 5749 5748
5811 5811 5810 5809 5808 5806 5805 5804 5802 5800 5798 5796 5794 5791 5789 5786 5783 5781 5778 5775 5773 5771 5767 5764 5762 5760 5758 5755 5751 5747 5744 5742 5740 5738 5736 5734 5732 5731
5803 5802 5801 5800 5798 5797 5795 5794 5792 5789 5787 5784 5782 5779 5776 5773 5770 5767 5764 5761 5758 5756 5752 5748 5746 5743 5742 5739 5735 5731 5728 5725 5723 5721 5718 5716 5714 5713
5794 5793 5791 5789 5787 5786 5784 5783 5780 5777 5774 5772 5769 5766 5763 5759 5756 5752 5749 5746 5742 5739 5736 5732 5730 5726 5723 5722 5719 5715 5711 5709 5706 5703 5700 5698 5696 5694
5784 5782 5780 5778 5777 5775 5773 5771 5768 5765 5762 5759 5756 5752 5749 5745 5741 5737 5733 5729 5726 5722 5718 5715 5712 5709 5706 5704 5702 5699 5694 5691 5688 5686 5683 5680 5678 5675
5774 5772 5770 5768 5765 5763 5760 5758 5755 5751 5748 5745 5741 5738 5734 5730 5726 5722 5717 5713 5709 5705 5701 5698 5695 5692 5689 5686 5684 5681 5678 5674 5670 5668 5666 5663 5660 5658
5764 5761 5759 5756 5753 5750 5747 5744 5740 5737 5733 5730 5726 5722 5718 5714 5710 5705 5701 5697 5694 5689 5685 5681 5678 5675 5672 5669 5666 5664 5660 5657 5655 5651 5649 5647 5644 5642
5753 5750 5746 5743 5740 5736 5733 5729 5725 5722 5718 5714 5710 5706 5702 5698 5693 5689 5685 5681 5677 5674 5670 5665 5661 5658 5655 5652 5650 5647 5644 5641 5638 5635 5633 5631 5629 5626
5741 5738 5734 5730 5726 5722 5718 5714 5710 5706 5702 5698 5694 5690 5686 5682 5678 5673 5669 5665 5662 5658 5654 5650 5646 5643 5640 5636 5633 5630 5628 5625 5623 5620 5617 5616 5615 5612
5729 5724 5720 5716 5712 5708 5704 5699 5695 5691 5687 5683 5679 5675 5670 5666 5662 5658 5653 5649 5646 5642 5638 5634 5631 5628 5625 5623 5619 5614 5612 5610 5608 5606 5603 5602 5601 5600
5716 5712 5707 5703 5698 5694 5689 5685 5681 5676 5672 5668 5664 5660 5656 5652 5647 5643 5638 5634 5631 5627 5624 5620 5616 5613 5611 5609 5606 5603 5599 5597 5595 5593 5591 5589 5588 5587
5703 5699 5694 5690 5685 5681 5676 5672 5667 5663 5659 5655 5651 5646 5642 5638 5634 5629 5625 5621 5617 5614 5610 5607 5603 5600 5597 5595 5594 5591 5588 5585 5583 5581 5580 5578 5577 5576
5691 5686 5682 5677 5673 5669 5664 5660 5655 5651 5647 5642 5638 5634 5630 5626 5622 5618 5613 5609 5606 5602 5598 5595 5592 5589 5587 5585 5582 5580 5578 5576 5573 5571 5569 5568 5566 5566
5680 5675 5670 5666 5662 5657 5653 5648 5644 5640 5635 5631 5627 5623 5619 5615 5611 5607 5603 5599 5595 5592 5589 5585 5582 5579 5577 5575 5573 5571 5569 5567 5564 5562 5560 5558 5557 5556